Showing default

TECHNOSAT, 42829

Orbit data source: Space-Track

TECHNOSAT, 42829 is a payload satellite owned by TUB (DE) in SSO that was launched on Fri, 14 Jul 2017 UTC via a SOYUZ-2-1A launch vehicle from the Tyuratam Missile And Space Complex (TTMTR). Payload-class satellites include a variety of spacecraft equipped with specific instruments for various scientific and technological missions. These include communications satellites like Starlink; space stations such as the ISS; scientific satellites like the Hubble; Earth observation satellites from companies like Planet Labs, Umbra, and HawkEye 360; GPS; miniature CubeSats for education and research; and military/defense satellites.

Loading next visibility...
Identifier
42829, 2017-042E
Orbit
SSO
Country
Flag of DEDE / GER
Related business
Manufacturer
TUB
Mission
Operational Amateur Technology
Bus & Motor
TUBIX20, Unknown motor
Mass
18 kg wet, 18 kg dry
Launch date (UTC)
2017-07-14 (8 years ago)
Launch vehicle
SOYUZ-2-1A
Launch site
Tyuratam Missile And Space Complex (TTMTR)
Object type
Payload
Rocket body
Debris
Shape & HBR
Oct Cyl, 0.2 m
Radar Cross Section
0.175 m², Medium (>0.1 m² and < 1m²)

Expand to show TLE details & history
Last TLE update: 8 hours ago

TLE from 8 hours ago
0 TECHNOSAT
1 42829U 17042E   25259.24159649  .00003208  00000-0  24624-3 0  9996
2 42829  97.4014  63.3177 0016182 313.9410  46.0479 15.02355561445532
Epoch: 2025-09-16T05:47Z
TLE epoch observation values (Epoch: 2025-09-16T05:47:53.936Z)
Latitude
-0.00009°
Longitude
-19.09174°
Altitude
554.917 km
Speed
7.588 km/s
True Right ascension
04h 13m 16s
True Declination
0° 00' 00"
Sunlit
Object was in daylight at epoch
Visualization orbit readout
Latitude
Unknown
Longitude
Unknown
Altitude
Unknown
Speed
Unknown
Apparent Right ascension
Unknown
Apparent Declination
Unknown
Sunlit
N/A
Visualization observer readout
Local Sidereal Time
06:12:44
Azimuth
Unknown
Elevation
Unknown
Doppler factor
Unknown
Orbital elements
Apogee altitude
567.846 km
Perigee altitude
545.402 km
Semi-major axis
6,934.761 km
Eccentricity
0.00162
Inclination
97.4014°
RAAN
63.3177°
Arg. of periapsis
313.941°
True anomaly
46.18158°
Mean anomaly
46.0479°
Eccentric anomaly
46.11472°
Mean motion
3.75834 °/min
Orbital period
95.79 mins
BSTAR
0.00024624
Loading maneuver chart data...
Computing Atmospheric mass density...

Documentation

Showing up to 5 results
|